Location: B�rgermoos
(47.6500°N, 9.0667°E)
Time: 14:22:52
(UTC+00:00)

Vanguard 2 Rocket - Pass Details

Date: 10 August 2021
Orbit: 555 x 3324 km, 32.9° (Epoch: 18 September)

Event Time Altitude Azimuth Distance (km) Brightness Sun altitude
Rises 05:45:31 0° 243° (WSW) 3,736 9.5 14.1°
Reaches altitude 10° 05:49:45 10° 220° (SW) 2,351 8.7 14.8°
Maximum altitude 05:52:28 14° 188° (S) 1,851 8.4 15.3°
Drops below altitude 10° 05:54:49 10° 155° (SSE) 1,966 9.0 15.7°
Sets 05:57:49 0° 128° (SE) 2,744 10.1 16.2°
